Bluefield, WV

7:01 PM EST on February 23, 2017 (GMT -0500)
Mercer County

Weather History for KBLF - March, 2013

Change the Weather History Date:

Tuesday, March 19, 2013

  Actual Average Record
Temperature  
Mean Temperature 43 °F 46 °F  
Max Temperature 51 °F 55 °F 80 °F (2012)
Min Temperature 34 °F 37 °F 17 °F (1967)
Degree Days  
Heating Degree Days 22 19  
Month to date heating degree days 506 413  
Since 1 July heating degree days 3908 3906  
Cooling Degree Days 0 0  
Month to date cooling degree days 0 0  
Year to date cooling degree days 1 0  
Moisture  
Dew Point 24 °F    
Average Humidity 51    
Maximum Humidity 86    
Minimum Humidity 16    
Precipitation  
Precipitation 0.11 in 0.11 in 1.26 in (1975)
Month to date precipitation 2.22 2.13  
Year to date precipitation 9.89 7.79  
Snow  
Snow 0.00 in - - ()
Month to date snowfall 5.8  
Since 1 July snowfall 46.9  
Snow Depth 0.00 in    
Sea Level Pressure  
Sea Level Pressure 29.90 in    
Wind  
Wind Speed 15 mph (WNW)    
Max Wind Speed 31 mph    
Max Gust Speed 44 mph    
Visibility 9 miles    
Events Rain    
T = Trace of Precipitation, MM = Missing Value Source: NWS Daily Summary

Daily Weather History Graph

Daily Weather History Graph

Search for Another Location

Airport or City:

Trip Planner

Search our weather history database for the weather conditions in past years. The results will help you decide how hot, cold, wet, or windy it might be!

Date:

Astronomy

Mar. 19, 2013 Rise Set
Actual Time 7:29 AM EDT 7:36 PM EDT
Civil Twilight 7:03 AM EDT 8:02 PM EDT
Nautical Twilight 6:33 AM EDT 8:32 PM EDT
Astronomical Twilight 6:02 AM EDT 9:03 PM EDT
Moon 12:25 PM EDT (3/19) 2:14 AM EDT (3/19)
Length of Visible Light 12h 58m
Length of Day
12h 06m
Waxing Crescent, 49% of the Moon is Illuminated
Mar 19
Waxing Crescent
Mar 19
First Quarter
Mar 27
Full
Apr 3
Last Quarter
Apr 10
New

Hourly Weather History & Observations

Time (EDT) Temp. Windchill Dew Point Humidity Pressure Visibility Wind Dir Wind Speed Gust Speed Precip Events Conditions
12:17 AM 41.0 °F - 37.4 °F 87% 29.80 in 10.0 mi Calm Calm - N/A   Scattered Clouds
1:37 AM 44.6 °F 42.2 °F 39.2 °F 81% 29.79 in 10.0 mi WNW 4.6 mph - N/A   Mostly Cloudy
2:06 AM 44.6 °F 42.2 °F 39.2 °F 81% 29.79 in 5.0 mi WSW 4.6 mph - 0.02 in Rain Rain
2:52 AM 46.9 °F - 43.0 °F 86% 29.79 in 10.0 mi WSW 8.1 mph - 0.05 in Rain Light Rain
3:19 AM 46.4 °F 42.4 °F 42.8 °F 87% 29.79 in 10.0 mi West 8.1 mph - 0.01 in   Overcast
3:49 AM 46.4 °F 43.5 °F 42.8 °F 87% 29.80 in 3.0 mi WNW 5.8 mph - 0.02 in Rain Light Rain
3:52 AM 46.0 °F 43.9 °F 43.0 °F 89% 29.80 in 2.0 mi West 4.6 mph - 0.02 in Rain Light Rain
4:07 AM 46.4 °F 43.5 °F 42.8 °F 87% 29.79 in 3.0 mi WNW 5.8 mph - 0.01 in Rain Light Rain
4:49 AM 46.4 °F 39.8 °F 42.8 °F 87% 29.81 in 4.0 mi WNW 16.1 mph 21.9 mph 0.03 in Rain Light Rain
4:52 AM 46.0 °F 39.9 °F 41.0 °F 83% 29.82 in 4.0 mi WNW 13.8 mph 21.9 mph 0.03 in Rain Light Rain
5:52 AM 39.9 °F 31.1 °F 36.0 °F 86% 29.88 in 4.0 mi NW 17.3 mph 27.6 mph 0.01 in Rain Light Rain
6:41 AM 37.4 °F 28.5 °F 33.8 °F 87% 29.90 in 10.0 mi WNW 15.0 mph 27.6 mph 0.00 in   Overcast
6:52 AM 37.9 °F 29.2 °F 32.0 °F 79% 29.93 in 10.0 mi WNW 15.0 mph 26.5 mph 0.00 in   Overcast
7:07 AM 37.4 °F 28.5 °F 28.4 °F 70% 29.91 in 10.0 mi West 15.0 mph 24.2 mph N/A   Mostly Cloudy
7:52 AM 35.1 °F 27.4 °F 26.1 °F 70% 29.95 in 10.0 mi West 10.4 mph 23.0 mph N/A   Overcast
8:43 AM 35.6 °F 28.6 °F 26.6 °F 70% 29.93 in 10.0 mi West 9.2 mph - N/A   Scattered Clouds
8:52 AM 36.0 °F 28.5 °F 27.0 °F 70% 29.95 in 10.0 mi West 10.4 mph - N/A   Partly Cloudy
9:52 AM 37.9 °F 29.6 °F 27.0 °F 65% 29.94 in 10.0 mi West 13.8 mph 19.6 mph N/A   Scattered Clouds
10:52 AM 39.9 °F 30.8 °F 25.0 °F 55% 29.94 in 10.0 mi West 18.4 mph 31.1 mph N/A   Clear
11:52 AM 42.1 °F 34.5 °F 21.9 °F 45% 29.93 in 10.0 mi WNW 15.0 mph 35.7 mph N/A   Clear
12:52 PM 45.0 °F 37.1 °F 19.9 °F 37% 29.90 in 10.0 mi WNW 19.6 mph 36.8 mph N/A   Clear
1:52 PM 46.9 °F - 21.0 °F 36% 29.89 in 10.0 mi West 23.0 mph 28.8 mph N/A   Clear
2:52 PM 50.0 °F - 21.0 °F 32% 29.87 in 10.0 mi West 24.2 mph 35.7 mph N/A   Clear
3:52 PM 48.9 °F - 12.9 °F 24% 29.88 in 10.0 mi West 18.4 mph 31.1 mph N/A   Clear
4:52 PM 48.0 °F - 7.0 °F 19% 29.91 in 10.0 mi West 21.9 mph 43.7 mph N/A   Clear
5:52 PM 46.9 °F - 5.0 °F 18% 29.94 in 10.0 mi WNW 19.6 mph 33.4 mph N/A   Clear
6:52 PM 45.0 °F 36.2 °F -0.9 °F 15% 29.97 in 10.0 mi WNW 24.2 mph 32.2 mph N/A   Clear
7:52 PM 42.1 °F 33.3 °F -0.9 °F 17% 30.00 in 10.0 mi WNW 19.6 mph 34.5 mph N/A   Clear
8:52 PM 39.9 °F 32.1 °F -2.0 °F 17% 30.03 in 10.0 mi WNW 13.8 mph 27.6 mph N/A   Clear
9:52 PM 37.9 °F 30.0 °F -0.9 °F 19% 30.05 in 10.0 mi WNW 12.7 mph 20.7 mph N/A   Clear
10:52 PM 37.0 °F 29.3 °F -0.9 °F 20% 30.04 in 10.0 mi WNW 11.5 mph - N/A   Clear
11:52 PM 36.0 °F 28.5 °F -0.9 °F 21% 30.03 in 10.0 mi WNW 10.4 mph 19.6 mph N/A   Clear